owner,sensor,date,latitude,longitude,vertical_datum,wind_speed,wind_to_direction,wind_speed_of_gust,qcFlag 
LUMCON,ioos:station:LUMCON:wisl1:1,2019-11-01T00:00:00Z,29.1144,-90.1840,1.0,9.5,315.0,12.5,'11111222,11111222,11111222' 
LUMCON,ioos:station:LUMCON:wisl1:1,2019-11-01T00:15:00Z,29.1144,-90.1840,1.0,9.8,309.0,12.5,'11111222,11111222,11111222' 
LUMCON,ioos:station:LUMCON:wisl1:1,2019-11-01T00:30:00Z,29.1144,-90.1840,1.0,9.2,310.0,12.6,'11111222,11111222,11111222' 
LUMCON,ioos:station:LUMCON:wisl1:1,2019-11-01T00:45:00Z,29.1144,-90.1840,1.0,11.1,317.0,12.7,'11111222,11111222,11111222' 
LUMCON,ioos:station:LUMCON:wisl1:1,2019-11-01T01:00:00Z,29.1144,-90.1840,1.0,10.3,314.0,12.6,'11111222,11111222,11111222' 
LUMCON,ioos:station:LUMCON:wisl1:1,2019-11-01T01:15:00Z,29.1144,-90.1840,1.0,11.4,339.0,12.5,'11111222,11111222,11111222' 
LUMCON,ioos:station:LUMCON:wisl1:1,2019-11-01T01:30:00Z,29.1144,-90.1840,1.0,11.4,333.0,12.4,'11111222,11111222,11111222' 
LUMCON,ioos:station:LUMCON:wisl1:1,2019-11-01T01:45:00Z,29.1144,-90.1840,1.0,8.1,344.0,12.3,'11111222,11111222,11111222' 
LUMCON,ioos:station:LUMCON:wisl1:1,2019-11-01T02:00:00Z,29.1144,-90.1840,1.0,10.0,341.0,12.1,'11111222,11111222,11111222' 
LUMCON,ioos:station:LUMCON:wisl1:1,2019-11-01T02:15:00Z,29.1144,-90.1840,1.0,12.8,336.0,11.8,'11111222,11111222,11111222' 
LUMCON,ioos:station:LUMCON:wisl1:1,2019-11-01T02:30:00Z,29.1144,-90.1840,1.0,10.3,347.0,11.7,'11111222,11111222,11111222' 
LUMCON,ioos:station:LUMCON:wisl1:1,2019-11-01T02:45:00Z,29.1144,-90.1840,1.0,12.8,335.0,11.3,'11111222,11111222,11111222' 
LUMCON,ioos:station:LUMCON:wisl1:1,2019-11-01T03:00:00Z,29.1144,-90.1840,1.0,11.2,333.0,11.2,'11111222,11111222,11111222' 
LUMCON,ioos:station:LUMCON:wisl1:1,2019-11-01T03:15:00Z,29.1144,-90.1840,1.0,11.9,330.0,10.9,'11111222,11111222,11111222' 
LUMCON,ioos:station:LUMCON:wisl1:1,2019-11-01T03:30:00Z,29.1144,-90.1840,1.0,8.4,330.0,10.7,'11111222,11111222,11111222' 
LUMCON,ioos:station:LUMCON:wisl1:1,2019-11-01T03:45:00Z,29.1144,-90.1840,1.0,11.9,331.0,10.6,'11111222,11111222,11111222' 
LUMCON,ioos:station:LUMCON:wisl1:1,2019-11-01T04:00:00Z,29.1144,-90.1840,1.0,9.7,341.0,10.5,'11111222,11111222,11111222' 
LUMCON,ioos:station:LUMCON:wisl1:1,2019-11-01T04:15:00Z,29.1144,-90.1840,1.0,7.8,337.0,10.2,'11111222,11111222,11111222' 
LUMCON,ioos:station:LUMCON:wisl1:1,2019-11-01T04:30:00Z,29.1144,-90.1840,1.0,11.4,345.0,10.2,'11111222,11111222,11111222' 
LUMCON,ioos:station:LUMCON:wisl1:1,2019-11-01T04:45:00Z,29.1144,-90.1840,1.0,10.8,345.0,9.9,'11111222,11111222,11111222' 
LUMCON,ioos:station:LUMCON:wisl1:1,2019-11-01T11:15:00Z,29.1144,-90.1840,1.0,8.1,5.0,8.3,'11111222,11111222,11111222' 
LUMCON,ioos:station:LUMCON:wisl1:1,2019-11-01T11:30:00Z,29.1144,-90.1840,1.0,6.1,10.0,8.3,'11111222,11111222,11111222' 
LUMCON,ioos:station:LUMCON:wisl1:1,2019-11-01T11:45:00Z,29.1144,-90.1840,1.0,7.2,353.0,8.2,'11111222,11111222,11111222' 
LUMCON,ioos:station:LUMCON:wisl1:1,2019-11-01T12:00:00Z,29.1144,-90.1840,1.0,6.3,354.0,8.3,'11111222,11111222,11111222' 
LUMCON,ioos:station:LUMCON:wisl1:1,2019-11-01T12:15:00Z,29.1144,-90.1840,1.0,7.0,358.0,8.3,'11111222,11111222,11111222' 
LUMCON,ioos:station:LUMCON:wisl1:1,2019-11-01T12:30:00Z,29.1144,-90.1840,1.0,6.7,7.0,8.3,'11111222,11111222,11111222' 
LUMCON,ioos:station:LUMCON:wisl1:1,2019-11-01T12:45:00Z,29.1144,-90.1840,1.0,6.8,16.0,8.3,'11111222,11111222,11111222' 
LUMCON,ioos:station:LUMCON:wisl1:1,2019-11-01T13:00:00Z,29.1144,-90.1840,1.0,6.9,1.0,8.4,'11111222,11111222,11111222' 
LUMCON,ioos:station:LUMCON:wisl1:1,2019-11-01T13:15:00Z,29.1144,-90.1840,1.0,6.1,346.0,8.3,'11111222,11111222,11111222' 
LUMCON,ioos:station:LUMCON:wisl1:1,2019-11-01T13:30:00Z,29.1144,-90.1840,1.0,7.0,358.0,8.2,'11111222,11111222,11111222' 
LUMCON,ioos:station:LUMCON:wisl1:1,2019-11-01T13:45:00Z,29.1144,-90.1840,1.0,7.6,330.0,8.4,'11111222,11111222,11111222' 
LUMCON,ioos:station:LUMCON:wisl1:1,2019-11-01T14:00:00Z,29.1144,-90.1840,1.0,7.2,333.0,8.1,'11111222,11111222,11111222' 
LUMCON,ioos:station:LUMCON:wisl1:1,2019-11-01T14:15:00Z,29.1144,-90.1840,1.0,6.7,349.0,8.0,'11111222,11111222,11111222' 
LUMCON,ioos:station:LUMCON:wisl1:1,2019-11-01T14:30:00Z,29.1144,-90.1840,1.0,7.3,351.0,8.2,'11111222,11111222,11111222' 
LUMCON,ioos:station:LUMCON:wisl1:1,2019-11-01T14:45:00Z,29.1144,-90.1840,1.0,7.6,342.0,8.1,'11111222,11111222,11111222' 
LUMCON,ioos:station:LUMCON:wisl1:1,2019-11-01T15:00:00Z,29.1144,-90.1840,1.0,7.2,339.0,8.2,'11111222,11111222,11111222' 
LUMCON,ioos:station:LUMCON:wisl1:1,2019-11-01T15:15:00Z,29.1144,-90.1840,1.0,8.6,351.0,8.3,'11111222,11111222,11111222' 
LUMCON,ioos:station:LUMCON:wisl1:1,2019-11-01T15:30:00Z,29.1144,-90.1840,1.0,7.1,357.0,8.3,'11111222,11111222,11111222' 
LUMCON,ioos:station:LUMCON:wisl1:1,2019-11-01T15:45:00Z,29.1144,-90.1840,1.0,6.6,351.0,8.4,'11111222,11111222,11111222' 
LUMCON,ioos:station:LUMCON:wisl1:1,2019-11-01T16:00:00Z,29.1144,-90.1840,1.0,5.6,347.0,8.3,'11111222,11111222,11111222' 
LUMCON,ioos:station:LUMCON:wisl1:1,2019-11-01T16:15:00Z,29.1144,-90.1840,1.0,6.8,14.0,8.5,'11111222,11111222,11111222' 
LUMCON,ioos:station:LUMCON:wisl1:1,2019-11-01T16:30:00Z,29.1144,-90.1840,1.0,4.3,355.0,8.3,'11111222,11111222,11111222' 
LUMCON,ioos:station:LUMCON:wisl1:1,2019-11-01T16:45:00Z,29.1144,-90.1840,1.0,5.7,354.0,8.4,'11111222,11111222,11111222' 
LUMCON,ioos:station:LUMCON:wisl1:1,2019-11-01T17:00:00Z,29.1144,-90.1840,1.0,5.5,345.0,8.6,'11111222,11111222,11111222' 
LUMCON,ioos:station:LUMCON:wisl1:1,2019-11-01T17:15:00Z,29.1144,-90.1840,1.0,7.0,349.0,8.6,'11111222,11111222,11111222' 
LUMCON,ioos:station:LUMCON:wisl1:1,2019-11-01T17:30:00Z,29.1144,-90.1840,1.0,3.9,351.0,8.8,'11111222,11111222,11111222' 
LUMCON,ioos:station:LUMCON:wisl1:1,2019-11-01T17:45:00Z,29.1144,-90.1840,1.0,6.6,1.0,9.1,'11111222,11111222,11111222' 
LUMCON,ioos:station:LUMCON:wisl1:1,2019-11-01T18:00:00Z,29.1144,-90.1840,1.0,4.9,15.0,9.3,'11111222,11111222,11111222' 
LUMCON,ioos:station:LUMCON:wisl1:1,2019-11-01T18:15:00Z,29.1144,-90.1840,1.0,5.0,339.0,9.6,'11111222,11111222,11111222' 
LUMCON,ioos:station:LUMCON:wisl1:1,2019-11-01T18:30:00Z,29.1144,-90.1840,1.0,5.0,357.0,9.6,'11111222,11111222,11111222' 
LUMCON,ioos:station:LUMCON:wisl1:1,2019-11-01T18:45:00Z,29.1144,-90.1840,1.0,5.2,1.0,9.8,'11111222,11111222,11111222' 
LUMCON,ioos:station:LUMCON:wisl1:1,2019-11-01T19:00:00Z,29.1144,-90.1840,1.0,4.5,326.0,10.0,'11111222,11111222,11111222' 
LUMCON,ioos:station:LUMCON:wisl1:1,2019-11-01T19:15:00Z,29.1144,-90.1840,1.0,5.3,348.0,10.2,'11111222,11111222,11111222' 
LUMCON,ioos:station:LUMCON:wisl1:1,2019-11-01T19:30:00Z,29.1144,-90.1840,1.0,4.2,357.0,10.1,'11111222,11111222,11111222' 
LUMCON,ioos:station:LUMCON:wisl1:1,2019-11-01T19:45:00Z,29.1144,-90.1840,1.0,5.8,20.0,10.3,'11111222,11111222,11111222' 
LUMCON,ioos:station:LUMCON:wisl1:1,2019-11-01T20:00:00Z,29.1144,-90.1840,1.0,4.4,343.0,10.4,'11111222,11111222,11111222' 
LUMCON,ioos:station:LUMCON:wisl1:1,2019-11-01T20:15:00Z,29.1144,-90.1840,1.0,3.5,355.0,10.5,'11111222,11111222,11111222' 
LUMCON,ioos:station:LUMCON:wisl1:1,2019-11-01T20:30:00Z,29.1144,-90.1840,1.0,3.7,353.0,11.0,'11111222,11111222,11111222' 
LUMCON,ioos:station:LUMCON:wisl1:1,2019-11-01T20:45:00Z,29.1144,-90.1840,1.0,4.4,352.0,11.2,'11111222,11111222,11111222' 
LUMCON,ioos:station:LUMCON:wisl1:1,2019-11-01T21:00:00Z,29.1144,-90.1840,1.0,3.8,350.0,11.5,'11111222,11111222,11111222' 
LUMCON,ioos:station:LUMCON:wisl1:1,2019-11-01T21:15:00Z,29.1144,-90.1840,1.0,4.5,1.0,11.6,'11111222,11111222,11111222' 
LUMCON,ioos:station:LUMCON:wisl1:1,2019-11-01T21:30:00Z,29.1144,-90.1840,1.0,5.3,346.0,11.9,'11111222,11111222,11111222' 
LUMCON,ioos:station:LUMCON:wisl1:1,2019-11-01T21:45:00Z,29.1144,-90.1840,1.0,4.9,357.0,12.1,'11111222,11111222,11111222' 
LUMCON,ioos:station:LUMCON:wisl1:1,2019-11-01T22:00:00Z,29.1144,-90.1840,1.0,2.7,331.0,12.3,'11111222,11111222,11111222' 
LUMCON,ioos:station:LUMCON:wisl1:1,2019-11-01T22:15:00Z,29.1144,-90.1840,1.0,2.1,358.0,12.2,'11111222,11111222,11111222' 
LUMCON,ioos:station:LUMCON:wisl1:1,2019-11-01T22:30:00Z,29.1144,-90.1840,1.0,4.7,343.0,12.4,'11111222,11111222,11111222' 
LUMCON,ioos:station:LUMCON:wisl1:1,2019-11-01T22:45:00Z,29.1144,-90.1840,1.0,4.6,333.0,12.5,'11111222,11111222,11111222' 
LUMCON,ioos:station:LUMCON:wisl1:1,2019-11-01T23:00:00Z,29.1144,-90.1840,1.0,5.1,332.0,12.3,'11111222,11111222,11111222' 
LUMCON,ioos:station:LUMCON:wisl1:1,2019-11-01T23:15:00Z,29.1144,-90.1840,1.0,4.8,353.0,12.4,'11111222,11111222,11111222' 
LUMCON,ioos:station:LUMCON:wisl1:1,2019-11-01T23:30:00Z,29.1144,-90.1840,1.0,5.4,336.0,12.2,'11111222,11111222,11111222' 
LUMCON,ioos:station:LUMCON:wisl1:1,2019-11-01T23:45:00Z,29.1144,-90.1840,1.0,5.3,313.0,12.2,'11111222,11111222,11111222' 
LUMCON,ioos:station:LUMCON:wisl1:1,2019-11-02T00:00:00Z,29.1144,-90.1840,1.0,5.0,321.0,12.2,'11111222,11111222,11111222' 
LUMCON,ioos:station:LUMCON:wisl1:1,2019-11-02T00:15:00Z,29.1144,-90.1840,1.0,5.4,314.0,12.1,'11111222,11111222,11111222' 
LUMCON,ioos:station:LUMCON:wisl1:1,2019-11-02T00:30:00Z,29.1144,-90.1840,1.0,3.5,334.0,12.1,'11111222,11111222,11111222' 
LUMCON,ioos:station:LUMCON:wisl1:1,2019-11-02T00:45:00Z,29.1144,-90.1840,1.0,4.1,337.0,12.1,'11111222,11111222,11111222' 
LUMCON,ioos:station:LUMCON:wisl1:1,2019-11-02T01:00:00Z,29.1144,-90.1840,1.0,4.7,330.0,12.2,'11111222,11111222,11111222' 
LUMCON,ioos:station:LUMCON:wisl1:1,2019-11-02T01:15:00Z,29.1144,-90.1840,1.0,4.3,337.0,12.0,'11111222,11111222,11111222' 
LUMCON,ioos:station:LUMCON:wisl1:1,2019-11-02T01:30:00Z,29.1144,-90.1840,1.0,3.7,345.0,11.9,'11111222,11111222,11111222' 
LUMCON,ioos:station:LUMCON:wisl1:1,2019-11-02T01:45:00Z,29.1144,-90.1840,1.0,4.7,332.0,11.9,'11111222,11111222,11111222' 
LUMCON,ioos:station:LUMCON:wisl1:1,2019-11-02T02:00:00Z,29.1144,-90.1840,1.0,3.2,348.0,12.1,'11111222,11111222,11111222' 
LUMCON,ioos:station:LUMCON:wisl1:1,2019-11-02T02:15:00Z,29.1144,-90.1840,1.0,2.9,331.0,12.1,'11111222,11111222,11111222' 
LUMCON,ioos:station:LUMCON:wisl1:1,2019-11-02T02:30:00Z,29.1144,-90.1840,1.0,2.4,333.0,12.1,'11111222,11111222,11111222' 
LUMCON,ioos:station:LUMCON:wisl1:1,2019-11-02T02:45:00Z,29.1144,-90.1840,1.0,2.6,335.0,12.2,'11111222,11111222,11111222' 
LUMCON,ioos:station:LUMCON:wisl1:1,2019-11-02T03:00:00Z,29.1144,-90.1840,1.0,2.8,323.0,12.2,'11111222,11111222,11111222' 
LUMCON,ioos:station:LUMCON:wisl1:1,2019-11-02T03:15:00Z,29.1144,-90.1840,1.0,3.4,331.0,12.2,'11111222,11111222,11111222' 
LUMCON,ioos:station:LUMCON:wisl1:1,2019-11-02T03:30:00Z,29.1144,-90.1840,1.0,3.1,317.0,12.3,'11111222,11111222,11111222' 
LUMCON,ioos:station:LUMCON:wisl1:1,2019-11-02T03:45:00Z,29.1144,-90.1840,1.0,2.8,318.0,12.4,'11111222,11111222,11111222' 
LUMCON,ioos:station:LUMCON:wisl1:1,2019-11-02T04:00:00Z,29.1144,-90.1840,1.0,3.3,314.0,12.4,'11111222,11111222,11111222' 
LUMCON,ioos:station:LUMCON:wisl1:1,2019-11-02T04:15:00Z,29.1144,-90.1840,1.0,3.2,326.0,12.5,'11111222,11111222,11111222' 
LUMCON,ioos:station:LUMCON:wisl1:1,2019-11-02T04:30:00Z,29.1144,-90.1840,1.0,4.1,326.0,12.5,'11111222,11111222,11111222' 
LUMCON,ioos:station:LUMCON:wisl1:1,2019-11-02T04:45:00Z,29.1144,-90.1840,1.0,3.6,340.0,12.6,'11111222,11111222,11111222' 
LUMCON,ioos:station:LUMCON:wisl1:1,2019-11-02T05:00:00Z,29.1144,-90.1840,1.0,2.9,336.0,12.7,'11111222,11111222,11111222' 
LUMCON,ioos:station:LUMCON:wisl1:1,2019-11-02T05:15:00Z,29.1144,-90.1840,1.0,4.4,340.0,12.7,'11111222,11111222,11111222' 
LUMCON,ioos:station:LUMCON:wisl1:1,2019-11-02T05:30:00Z,29.1144,-90.1840,1.0,3.5,325.0,12.6,'11111222,11111222,11111222' 
LUMCON,ioos:station:LUMCON:wisl1:1,2019-11-02T05:45:00Z,29.1144,-90.1840,1.0,4.3,331.0,12.6,'11111222,11111222,11111222' 
LUMCON,ioos:station:LUMCON:wisl1:1,2019-11-02T06:00:00Z,29.1144,-90.1840,1.0,4.4,342.0,12.7,'11111222,11111222,11111222' 
LUMCON,ioos:station:LUMCON:wisl1:1,2019-11-02T06:15:00Z,29.1144,-90.1840,1.0,4.6,346.0,12.9,'11111222,11111222,11111222' 
LUMCON,ioos:station:LUMCON:wisl1:1,2019-11-02T06:30:00Z,29.1144,-90.1840,1.0,4.3,343.0,12.9,'11111222,11111222,11111222' 
LUMCON,ioos:station:LUMCON:wisl1:1,2019-11-02T06:45:00Z,29.1144,-90.1840,1.0,4.2,338.0,13.0,'11111222,11111222,11111222' 
LUMCON,ioos:station:LUMCON:wisl1:1,2019-11-02T07:00:00Z,29.1144,-90.1840,1.0,4.6,345.0,13.0,'11111222,11111222,11111222' 
LUMCON,ioos:station:LUMCON:wisl1:1,2019-11-02T07:15:00Z,29.1144,-90.1840,1.0,4.7,346.0,13.1,'11111222,11111222,11111222' 
LUMCON,ioos:station:LUMCON:wisl1:1,2019-11-02T07:30:00Z,29.1144,-90.1840,1.0,3.7,345.0,13.0,'11111222,11111222,11111222' 
LUMCON,ioos:station:LUMCON:wisl1:1,2019-11-02T07:45:00Z,29.1144,-90.1840,1.0,3.7,327.0,12.6,'11111222,11111222,11111222' 
LUMCON,ioos:station:LUMCON:wisl1:1,2019-11-02T08:00:00Z,29.1144,-90.1840,1.0,3.2,331.0,12.6,'11111222,11111222,11111222' 
LUMCON,ioos:station:LUMCON:wisl1:1,2019-11-02T08:15:00Z,29.1144,-90.1840,1.0,4.8,331.0,12.6,'11111222,11111222,11111222' 
LUMCON,ioos:station:LUMCON:wisl1:1,2019-11-02T08:30:00Z,29.1144,-90.1840,1.0,4.5,325.0,12.4,'11111222,11111222,11111222' 
LUMCON,ioos:station:LUMCON:wisl1:1,2019-11-02T08:45:00Z,29.1144,-90.1840,1.0,4.5,338.0,12.4,'11111222,11111222,11111222' 
LUMCON,ioos:station:LUMCON:wisl1:1,2019-11-02T09:00:00Z,29.1144,-90.1840,1.0,5.7,334.0,12.4,'11111222,11111222,11111222' 
LUMCON,ioos:station:LUMCON:wisl1:1,2019-11-02T09:15:00Z,29.1144,-90.1840,1.0,5.2,334.0,12.4,'11111222,11111222,11111222' 
LUMCON,ioos:station:LUMCON:wisl1:1,2019-11-02T09:30:00Z,29.1144,-90.1840,1.0,4.7,335.0,12.3,'11111222,11111222,11111222' 
LUMCON,ioos:station:LUMCON:wisl1:1,2019-11-02T09:45:00Z,29.1144,-90.1840,1.0,5.4,345.0,12.3,'11111222,11111222,11111222' 
LUMCON,ioos:station:LUMCON:wisl1:1,2019-11-02T10:00:00Z,29.1144,-90.1840,1.0,4.7,350.0,12.2,'11111222,11111222,11111222' 
LUMCON,ioos:station:LUMCON:wisl1:1,2019-11-02T10:15:00Z,29.1144,-90.1840,1.0,6.1,340.0,12.2,'11111222,11111222,11111222' 
LUMCON,ioos:station:LUMCON:wisl1:1,2019-11-02T10:30:00Z,29.1144,-90.1840,1.0,4.9,335.0,12.1,'11111222,11111222,11111222' 
LUMCON,ioos:station:LUMCON:wisl1:1,2019-11-02T10:45:00Z,29.1144,-90.1840,1.0,4.6,342.0,12.1,'11111222,11111222,11111222' 
LUMCON,ioos:station:LUMCON:wisl1:1,2019-11-02T11:00:00Z,29.1144,-90.1840,1.0,7.6,340.0,12.1,'11111222,11111222,11111222' 
LUMCON,ioos:station:LUMCON:wisl1:1,2019-11-02T11:15:00Z,29.1144,-90.1840,1.0,4.6,336.0,12.0,'11111222,11111222,11111222' 
LUMCON,ioos:station:LUMCON:wisl1:1,2019-11-02T11:30:00Z,29.1144,-90.1840,1.0,4.6,339.0,11.9,'11111222,11111222,11111222' 
LUMCON,ioos:station:LUMCON:wisl1:1,2019-11-02T11:45:00Z,29.1144,-90.1840,1.0,6.7,337.0,11.9,'11111222,11111222,11111222' 
LUMCON,ioos:station:LUMCON:wisl1:1,2019-11-02T12:00:00Z,29.1144,-90.1840,1.0,6.5,332.0,11.8,'11111222,11111222,11111222' 
LUMCON,ioos:station:LUMCON:wisl1:1,2019-11-02T12:15:00Z,29.1144,-90.1840,1.0,6.9,342.0,11.8,'11111222,11111222,11111222' 
LUMCON,ioos:station:LUMCON:wisl1:1,2019-11-02T12:30:00Z,29.1144,-90.1840,1.0,5.4,334.0,11.7,'11111222,11111222,11111222' 
LUMCON,ioos:station:LUMCON:wisl1:1,2019-11-02T12:45:00Z,29.1144,-90.1840,1.0,6.3,349.0,11.7,'11111222,11111222,11111222' 
LUMCON,ioos:station:LUMCON:wisl1:1,2019-11-02T13:00:00Z,29.1144,-90.1840,1.0,7.2,342.0,11.9,'11111222,11111222,11111222' 
LUMCON,ioos:station:LUMCON:wisl1:1,2019-11-02T13:15:00Z,29.1144,-90.1840,1.0,5.1,346.0,11.8,'11111222,11111222,11111222' 
LUMCON,ioos:station:LUMCON:wisl1:1,2019-11-02T13:30:00Z,29.1144,-90.1840,1.0,6.8,329.0,12.0,'11111222,11111222,11111222' 
LUMCON,ioos:station:LUMCON:wisl1:1,2019-11-02T22:00:00Z,29.1144,-90.1840,1.0,5.6,343.0,15.9,'11111222,11111222,11111222' 
LUMCON,ioos:station:LUMCON:wisl1:1,2019-11-02T22:15:00Z,29.1144,-90.1840,1.0,7.5,338.0,15.7,'11111222,11111222,11111222' 
LUMCON,ioos:station:LUMCON:wisl1:1,2019-11-02T22:30:00Z,29.1144,-90.1840,1.0,7.1,321.0,15.6,'11111222,11111222,11111222' 
LUMCON,ioos:station:LUMCON:wisl1:1,2019-11-02T22:45:00Z,29.1144,-90.1840,1.0,6.1,325.0,15.5,'11111222,11111222,11111222' 
LUMCON,ioos:station:LUMCON:wisl1:1,2019-11-02T23:00:00Z,29.1144,-90.1840,1.0,3.9,334.0,15.4,'11111222,11111222,11111222' 
LUMCON,ioos:station:LUMCON:wisl1:1,2019-11-02T23:15:00Z,29.1144,-90.1840,1.0,3.7,325.0,15.3,'11111222,11111222,11111222' 
LUMCON,ioos:station:LUMCON:wisl1:1,2019-11-02T23:30:00Z,29.1144,-90.1840,1.0,2.4,320.0,15.2,'11111222,11111222,11111222' 
LUMCON,ioos:station:LUMCON:wisl1:1,2019-11-02T23:45:00Z,29.1144,-90.1840,1.0,3.2,324.0,15.0,'11111222,11111222,11111222' 
LUMCON,ioos:station:LUMCON:wisl1:1,2019-11-03T00:00:00Z,29.1144,-90.1840,1.0,2.5,329.0,15.0,'11111222,11111222,11111222' 
LUMCON,ioos:station:LUMCON:wisl1:1,2019-11-03T00:15:00Z,29.1144,-90.1840,1.0,3.6,331.0,14.9,'11111222,11111222,11111222' 
LUMCON,ioos:station:LUMCON:wisl1:1,2019-11-03T00:30:00Z,29.1144,-90.1840,1.0,3.7,322.0,14.9,'11111222,11111222,11111222' 
LUMCON,ioos:station:LUMCON:wisl1:1,2019-11-03T00:45:00Z,29.1144,-90.1840,1.0,4.4,323.0,14.8,'11111222,11111222,11111222' 
LUMCON,ioos:station:LUMCON:wisl1:1,2019-11-03T01:00:00Z,29.1144,-90.1840,1.0,4.1,318.0,14.8,'11111222,11111222,11111222' 
LUMCON,ioos:station:LUMCON:wisl1:1,2019-11-03T01:15:00Z,29.1144,-90.1840,1.0,3.8,324.0,14.7,'11111222,11111222,11111222' 
LUMCON,ioos:station:LUMCON:wisl1:1,2019-11-03T01:30:00Z,29.1144,-90.1840,1.0,3.8,328.0,14.6,'11111222,11111222,11111222' 
LUMCON,ioos:station:LUMCON:wisl1:1,2019-11-03T01:45:00Z,29.1144,-90.1840,1.0,4.6,334.0,14.6,'11111222,11111222,11111222' 
LUMCON,ioos:station:LUMCON:wisl1:1,2019-11-03T02:00:00Z,29.1144,-90.1840,1.0,5.2,342.0,14.6,'11111222,11111222,11111222' 
LUMCON,ioos:station:LUMCON:wisl1:1,2019-11-03T02:15:00Z,29.1144,-90.1840,1.0,4.4,341.0,14.6,'11111222,11111222,11111222' 
LUMCON,ioos:station:LUMCON:wisl1:1,2019-11-03T02:30:00Z,29.1144,-90.1840,1.0,3.4,346.0,14.6,'11111222,11111222,11111222' 
LUMCON,ioos:station:LUMCON:wisl1:1,2019-11-03T02:45:00Z,29.1144,-90.1840,1.0,4.0,338.0,14.6,'11111222,11111222,11111222' 
LUMCON,ioos:station:LUMCON:wisl1:1,2019-11-03T03:00:00Z,29.1144,-90.1840,1.0,4.2,339.0,14.4,'11111222,11111222,11111222' 
LUMCON,ioos:station:LUMCON:wisl1:1,2019-11-03T03:15:00Z,29.1144,-90.1840,1.0,4.7,345.0,14.3,'11111222,11111222,11111222' 
LUMCON,ioos:station:LUMCON:wisl1:1,2019-11-03T03:30:00Z,29.1144,-90.1840,1.0,4.2,350.0,14.4,'11111222,11111222,11111222' 
LUMCON,ioos:station:LUMCON:wisl1:1,2019-11-03T03:45:00Z,29.1144,-90.1840,1.0,5.1,337.0,14.4,'11111222,11111222,11111222' 
LUMCON,ioos:station:LUMCON:wisl1:1,2019-11-03T04:00:00Z,29.1144,-90.1840,1.0,3.8,321.0,14.3,'11111222,11111222,11111222' 
LUMCON,ioos:station:LUMCON:wisl1:1,2019-11-03T04:15:00Z,29.1144,-90.1840,1.0,5.2,334.0,14.2,'11111222,11111222,11111222' 
LUMCON,ioos:station:LUMCON:wisl1:1,2019-11-03T04:30:00Z,29.1144,-90.1840,1.0,4.7,349.0,14.1,'11111222,11111222,11111222' 
LUMCON,ioos:station:LUMCON:wisl1:1,2019-11-03T04:45:00Z,29.1144,-90.1840,1.0,4.3,337.0,14.0,'11111222,11111222,11111222' 
LUMCON,ioos:station:LUMCON:wisl1:1,2019-11-03T05:00:00Z,29.1144,-90.1840,1.0,4.3,335.0,13.8,'11111222,11111222,11111222' 
LUMCON,ioos:station:LUMCON:wisl1:1,2019-11-03T05:15:00Z,29.1144,-90.1840,1.0,5.0,343.0,13.7,'11111222,11111222,11111222' 
LUMCON,ioos:station:LUMCON:wisl1:1,2019-11-03T05:30:00Z,29.1144,-90.1840,1.0,6.2,336.0,13.6,'11111222,11111222,11111222' 
LUMCON,ioos:station:LUMCON:wisl1:1,2019-11-03T05:45:00Z,29.1144,-90.1840,1.0,4.7,342.0,13.7,'11111222,11111222,11111222' 
LUMCON,ioos:station:LUMCON:wisl1:1,2019-11-03T06:00:00Z,29.1144,-90.1840,1.0,7.0,335.0,13.5,'11111222,11111222,11111222' 
LUMCON,ioos:station:LUMCON:wisl1:1,2019-11-03T06:15:00Z,29.1144,-90.1840,1.0,6.0,339.0,13.5,'11111222,11111222,11111222' 
LUMCON,ioos:station:LUMCON:wisl1:1,2019-11-03T06:30:00Z,29.1144,-90.1840,1.0,5.3,340.0,13.5,'11111222,11111222,11111222' 
LUMCON,ioos:station:LUMCON:wisl1:1,2019-11-03T06:45:00Z,29.1144,-90.1840,1.0,5.1,343.0,13.5,'11111222,11111222,11111222' 
LUMCON,ioos:station:LUMCON:wisl1:1,2019-11-03T07:00:00Z,29.1144,-90.1840,1.0,6.0,340.0,13.4,'11111222,11111222,11111222' 
LUMCON,ioos:station:LUMCON:wisl1:1,2019-11-03T07:15:00Z,29.1144,-90.1840,1.0,5.5,338.0,13.3,'11111222,11111222,11111222' 
LUMCON,ioos:station:LUMCON:wisl1:1,2019-11-03T07:30:00Z,29.1144,-90.1840,1.0,5.7,336.0,13.2,'11111222,11111222,11111222' 
LUMCON,ioos:station:LUMCON:wisl1:1,2019-11-03T07:45:00Z,29.1144,-90.1840,1.0,5.6,340.0,13.2,'11111222,11111222,11111222' 
LUMCON,ioos:station:LUMCON:wisl1:1,2019-11-03T08:00:00Z,29.1144,-90.1840,1.0,4.9,339.0,13.2,'11111222,11111222,11111222' 
LUMCON,ioos:station:LUMCON:wisl1:1,2019-11-03T08:15:00Z,29.1144,-90.1840,1.0,5.3,343.0,13.2,'11111222,11111222,11111222' 
LUMCON,ioos:station:LUMCON:wisl1:1,2019-11-03T08:30:00Z,29.1144,-90.1840,1.0,4.6,347.0,13.1,'11111222,11111222,11111222' 
LUMCON,ioos:station:LUMCON:wisl1:1,2019-11-03T08:45:00Z,29.1144,-90.1840,1.0,5.9,341.0,13.0,'11111222,11111222,11111222' 
LUMCON,ioos:station:LUMCON:wisl1:1,2019-11-03T09:00:00Z,29.1144,-90.1840,1.0,5.8,341.0,12.9,'11111222,11111222,11111222' 
LUMCON,ioos:station:LUMCON:wisl1:1,2019-11-03T09:15:00Z,29.1144,-90.1840,1.0,5.5,349.0,12.8,'11111222,11111222,11111222' 
LUMCON,ioos:station:LUMCON:wisl1:1,2019-11-03T09:30:00Z,29.1144,-90.1840,1.0,6.8,346.0,12.8,'11111222,11111222,11111222' 
LUMCON,ioos:station:LUMCON:wisl1:1,2019-11-03T09:45:00Z,29.1144,-90.1840,1.0,4.1,343.0,12.7,'11111222,11111222,11111222' 
LUMCON,ioos:station:LUMCON:wisl1:1,2019-11-03T10:00:00Z,29.1144,-90.1840,1.0,6.3,345.0,12.6,'11111222,11111222,11111222' 
LUMCON,ioos:station:LUMCON:wisl1:1,2019-11-03T10:15:00Z,29.1144,-90.1840,1.0,6.0,344.0,12.4,'11111222,11111222,11111222' 
LUMCON,ioos:station:LUMCON:wisl1:1,2019-11-03T10:30:00Z,29.1144,-90.1840,1.0,5.4,351.0,12.4,'11111222,11111222,11111222' 
LUMCON,ioos:station:LUMCON:wisl1:1,2019-11-03T10:45:00Z,29.1144,-90.1840,1.0,4.2,345.0,12.4,'11111222,11111222,11111222' 
LUMCON,ioos:station:LUMCON:wisl1:1,2019-11-03T11:00:00Z,29.1144,-90.1840,1.0,6.4,10.0,12.8,'11111222,11111222,11111222' 
LUMCON,ioos:station:LUMCON:wisl1:1,2019-11-03T11:15:00Z,29.1144,-90.1840,1.0,5.4,355.0,13.1,'11111222,11111222,11111222' 
LUMCON,ioos:station:LUMCON:wisl1:1,2019-11-03T11:30:00Z,29.1144,-90.1840,1.0,6.6,353.0,13.1,'11111222,11111222,11111222' 
LUMCON,ioos:station:LUMCON:wisl1:1,2019-11-03T11:45:00Z,29.1144,-90.1840,1.0,7.1,351.0,13.0,'11111222,11111222,11111222' 
LUMCON,ioos:station:LUMCON:wisl1:1,2019-11-03T12:00:00Z,29.1144,-90.1840,1.0,7.2,353.0,12.9,'11111222,11111222,11111222' 
LUMCON,ioos:station:LUMCON:wisl1:1,2019-11-03T12:15:00Z,29.1144,-90.1840,1.0,7.0,0.0,12.9,'11111222,11111222,11111222' 
LUMCON,ioos:station:LUMCON:wisl1:1,2019-11-03T12:30:00Z,29.1144,-90.1840,1.0,7.7,345.0,12.7,'11111222,11111222,11111222' 
LUMCON,ioos:station:LUMCON:wisl1:1,2019-11-03T12:45:00Z,29.1144,-90.1840,1.0,9.4,348.0,12.6,'11111222,11111222,11111222' 
LUMCON,ioos:station:LUMCON:wisl1:1,2019-11-03T13:00:00Z,29.1144,-90.1840,1.0,6.0,353.0,12.6,'11111222,11111222,11111222' 
LUMCON,ioos:station:LUMCON:wisl1:1,2019-11-03T13:15:00Z,29.1144,-90.1840,1.0,7.2,353.0,12.7,'11111222,11111222,11111222' 
LUMCON,ioos:station:LUMCON:wisl1:1,2019-11-03T13:30:00Z,29.1144,-90.1840,1.0,6.4,351.0,12.8,'11111222,11111222,11111222' 
LUMCON,ioos:station:LUMCON:wisl1:1,2019-11-03T13:45:00Z,29.1144,-90.1840,1.0,7.6,354.0,12.8,'11111222,11111222,11111222' 
LUMCON,ioos:station:LUMCON:wisl1:1,2019-11-03T14:00:00Z,29.1144,-90.1840,1.0,9.0,350.0,12.9,'11111222,11111222,11111222' 
LUMCON,ioos:station:LUMCON:wisl1:1,2019-11-03T14:15:00Z,29.1144,-90.1840,1.0,8.9,351.0,13.0,'11111222,11111222,11111222' 
LUMCON,ioos:station:LUMCON:wisl1:1,2019-11-03T14:30:00Z,29.1144,-90.1840,1.0,7.2,2.0,13.2,'11111222,11111222,11111222' 
LUMCON,ioos:station:LUMCON:wisl1:1,2019-11-03T14:45:00Z,29.1144,-90.1840,1.0,8.2,356.0,13.6,'11111222,11111222,11111222' 
LUMCON,ioos:station:LUMCON:wisl1:1,2019-11-03T15:00:00Z,29.1144,-90.1840,1.0,6.2,2.0,13.9,'11111222,11111222,11111222' 
LUMCON,ioos:station:LUMCON:wisl1:1,2019-11-03T15:15:00Z,29.1144,-90.1840,1.0,8.0,354.0,14.1,'11111222,11111222,11111222' 